Location: Six Mile Lake
(44.9000°N, 79.7170°W)
Time: 21:12:43
(UTC-04:00)

NOAA 18 - Pass Details

Date: 30 June 2022
Orbit: 839 x 860 km, 98.9° (Epoch: 15 August)

Event Time Altitude Azimuth Distance (km) Brightness Sun altitude
Exits shadow 22:14:44 12° 138° (SE) 2,324 6.8 -9.6°
Maximum altitude 22:19:32 46° 68° (ENE) 1,143 5.8 -10.2°
Drops below altitude 10° 22:24:48 10° 357° (N) 2,502 8.5 -10.8°
Sets 22:27:16 0° 351° (N) 3,445 9.5 -11.1°
